Wind_Speed
39 38 35 33 33 33 34 35 33 33 36 36 34 36 39 38 38 34 32 31 27 24 24 23 22 22 22 22 22 21 22 23 24 23 23 25 26 26 28 28 27 25
38 37 35 32 30 31 32 31 29 30 35 39 37 35 34 36 38 37 37 35 27 23 24 23 22 22 22 22 22 22 23 22 22 21 21 23 24 25 27 28 28 27
34 33 34 34 33 32 31 29 28 29 33 35 35 34 32 34 38 37 38 38 31 24 23 23 22 23 22 21 21 23 24 24 24 24 23 24 25 24 25 25 26 28
33 33 33 36 36 34 29 26 28 32 32 30 31 35 36 36 36 36 36 36 31 25 22 23 23 22 23 22 21 22 24 26 28 27 25 27 29 28 26 25 26 28
36 37 36 35 35 33 30 28 31 34 34 31 31 33 35 36 37 34 30 27 26 24 22 22 23 23 22 22 21 23 25 27 28 27 27 30 33 33 31 29 29 31
35 37 37 35 33 32 31 30 32 35 35 34 33 30 29 32 33 29 24 23 24 24 23 23 23 23 23 24 26 27 29 29 30 29 29 31 32 33 33 32 32 33
34 33 34 33 30 29 30 31 31 34 34 33 32 31 28 27 27 24 23 24 24 24 26 26 26 27 29 32 33 32 32 31 31 31 31 32 32 32 33 33 33 33
33 30 30 30 28 27 29 30 30 31 31 29 30 30 27 26 26 25 24 25 25 25 27 28 30 33 34 35 35 34 33 32 32 33 33 33 33 33 33 33 33 34
30 29 29 29 27 27 28 28 28 28 26 27 27 26 26 27 27 26 26 26 26 26 28 31 34 35 35 35 36 35 34 34 34 34 34 34 34 34 34 34 34 35
31 31 31 31 28 27 28 27 26 26 26 28 27 25 27 29 28 27 28 29 29 29 31 34 35 35 35 35 36 36 35 35 35 35 35 35 35 35 34 34 33 34
32 33 33 34 31 27 27 26 25 25 27 30 30 28 30 32 31 31 31 32 34 34 34 35 35 35 35 35 36 36 35 35 35 35 35 35 36 36 35 34 34 34
33 33 34 36 33 28 25 24 23 24 25 30 33 31 31 33 34 35 35 36 36 36 35 36 35 35 36 36 36 36 35 35 35 35 35 35 36 36 35 35 35 34
33 33 34 35 33 32 28 24 23 25 25 29 34 34 33 35 35 36 37 37 37 36 36 36 35 36 36 36 36 35 35 35 35 35 35 35 35 35 35 35 35 35
32 31 32 31 29 30 31 27 26 29 29 28 31 35 36 36 36 36 36 36 37 37 37 36 36 36 36 36 36 36 35 35 35 35 34 34 34 35 35 36 35 35
30 28 29 29 29 30 31 30 30 32 31 30 31 34 35 36 35 35 34 35 36 36 37 37 37 37 37 37 37 35 35 35 35 35 34 34 33 34 35 36 35 33
29 28 29 30 31 32 32 32 32 32 32 32 33 34 34 34 34 33 33 34 35 36 36 36 37 38 38 37 37 36 35 34 35 35 34 33 33 34 34 34 33 31
30 29 29 30 31 31 31 31 32 31 31 32 33 34 34 34 33 33 34 35 34 35 35 36 37 37 37 37 37 36 35 35 34 33 33 33 33 33 32 31 31 29
30 29 29 30 30 30 31 30 29 30 31 32 33 33 33 32 33 34 35 35 34 34 35 36 36 36 37 36 35 35 36 35 34 32 32 32 32 31 30 29 29 28
30 29 29 30 30 30 29 28 28 30 32 32 32 32 31 31 32 33 34 34 34 34 34 35 35 35 35 34 33 35 36 34 33 32 31 31 30 30 30 29 28 27
29 29 31 31 30 29 28 28 29 31 32 31 31 29 29 30 31 32 33 33 34 34 34 35 35 35 34 34 34 35 33 31 31 31 30 29 28 29 29 29 28 27
29 30 31 31 30 28 27 28 30 31 32 31 30 30 30 31 31 31 32 32 32 32 32 33 34 34 33 32 31 30 28 28 29 29 29 28 26 26 27 26 26 27
30 30 31 31 29 27 27 29 31 32 32 31 29 29 30 30 31 31 32 32 31 31 31 32 33 31 30 29 29 29 28 28 28 28 28 27 25 24 24 23 24 25
31 30 30 30 28 27 30 32 32 32 32 30 29 29 30 30 31 31 31 31 30 30 31 31 30 28 28 28 29 30 30 29 29 29 28 27 26 25 23 22 22 22
31 29 30 29 28 30 33 33 32 32 32 31 31 31 32 32 32 30 30 29 29 30 30 30 28 28 28 28 28 29 31 31 31 30 28 27 26 25 24 23 23 23
31 30 30 30 30 33 34 33 32 31 31 30 31 31 31 31 30 30 30 30 30 30 30 30 29 28 29 28 27 28 30 31 31 30 29 28 27 26 25 24 25 25
32 31 31 32 33 34 32 30 29 28 28 29 30 29 28 27 28 29 29 29 29 29 28 29 29 28 28 28 28 28 29 29 30 30 29 28 27 27 26 26 26 27
Wind_Direction
229 228 228 228 228 229 229 228 226 226 228 230 230 233 236 237 236 231 225 227 227 224 224 227 228 227 226 226 225 226 228 230 230 230 228 229 230 231 231 232 231 230
229 228 228 228 228 229 230 229 227 227 231 234 234 234 236 236 236 233 233 234 229 225 228 227 226 226 226 226 225 226 230 231 230 229 227 229 231 232 233 233 232 232
229 228 228 229 230 231 232 231 230 232 235 236 236 235 234 235 237 236 237 236 232 230 230 227 226 227 226 226 225 227 229 230 230 230 229 230 231 231 232 233 233 232
231 230 230 232 233 233 234 232 231 234 235 235 235 236 236 237 237 237 238 237 233 230 228 227 226 226 226 226 225 226 229 231 234 233 230 231 233 233 232 233 232 233
234 234 234 233 233 233 232 231 232 235 235 234 234 236 237 238 238 237 235 232 229 226 226 226 226 225 225 224 222 225 230 233 235 233 231 234 238 237 236 234 234 235
236 236 235 233 233 232 231 232 234 235 235 234 234 234 235 237 237 234 228 225 225 224 224 225 225 224 224 226 226 230 234 236 237 235 234 237 239 238 237 236 236 236
236 234 234 233 233 234 234 235 236 236 236 236 236 234 233 233 232 228 224 225 225 224 225 226 226 228 232 234 232 233 237 239 240 238 236 236 236 236 236 237 236 236
235 232 232 231 230 232 235 234 235 236 235 235 234 232 231 229 227 226 226 227 226 226 227 227 230 234 237 234 229 230 234 237 238 237 236 235 235 235 235 236 236 236
235 233 231 230 228 231 233 233 234 234 232 233 233 231 229 229 229 229 229 228 227 228 229 230 233 235 234 230 227 228 231 233 234 235 234 234 233 234 235 234 234 234
236 235 233 231 229 230 232 232 233 233 232 234 234 233 232 232 232 232 231 229 229 229 231 232 233 232 230 228 228 229 231 232 234 233 233 234 234 235 235 234 233 233
238 237 235 234 230 229 232 232 232 233 234 234 234 234 234 234 233 232 231 231 230 231 232 232 231 230 229 228 228 230 231 233 234 234 234 235 236 237 237 236 236 236
239 237 236 235 232 230 231 231 232 232 232 233 233 232 233 233 233 233 232 232 231 232 232 232 232 231 230 229 230 230 231 232 234 235 236 237 237 237 238 238 237 236
241 239 238 237 235 235 235 233 233 232 232 234 234 233 232 233 233 233 233 232 232 232 232 232 232 231 230 230 231 232 232 233 235 235 236 238 238 238 238 239 239 238
242 241 241 239 238 239 238 236 237 236 235 236 236 235 234 234 233 234 233 233 232 232 232 232 232 231 231 231 232 233 233 234 236 236 236 237 238 239 239 239 239 240
244 243 241 241 240 240 240 239 240 239 238 237 238 238 237 236 235 235 234 233 233 232 232 232 231 231 232 232 232 232 233 234 235 237 237 237 237 238 239 239 239 240
247 246 244 244 243 243 242 242 242 242 242 242 242 241 240 238 237 236 235 234 234 233 232 232 232 232 233 234 235 235 235 234 234 235 236 236 237 238 238 237 238 240
250 249 248 247 246 244 243 243 242 242 243 244 244 243 242 241 239 237 236 236 235 234 233 232 233 234 235 236 237 237 238 237 235 235 237 237 237 237 236 237 237 237
251 250 249 248 246 244 243 242 242 242 242 242 242 243 243 241 240 239 238 237 236 236 235 235 235 236 237 238 238 239 240 239 236 236 237 236 236 236 237 238 236 235
253 251 250 250 247 244 242 241 241 241 240 239 240 240 241 241 241 240 240 239 238 237 237 237 237 238 239 239 240 242 241 238 237 237 237 236 236 236 235 234 232 230
253 250 250 251 248 243 240 239 239 240 239 238 237 237 237 238 239 239 239 239 239 239 239 240 240 240 241 240 240 241 239 236 235 236 236 237 238 236 232 230 229 226
253 250 248 249 247 242 238 237 238 239 238 236 234 233 234 235 237 238 238 238 238 238 238 239 240 240 239 238 237 236 234 232 232 233 232 231 233 233 230 228 227 223
256 252 248 246 243 239 237 236 236 236 236 233 231 230 231 232 233 234 235 234 235 235 236 238 238 236 234 233 233 232 229 227 227 227 225 224 225 226 224 223 224 221
261 255 249 245 239 234 235 235 234 233 232 229 225 224 224 224 226 228 230 231 232 232 233 235 235 232 229 229 229 227 224 223 222 221 220 220 218 217 216 216 217 218
265 258 251 246 238 235 236 235 232 231 230 226 222 221 221 221 221 223 225 227 228 229 229 230 230 229 228 225 223 222 221 219 217 215 213 211 209 208 210 210 211 213
267 261 254 247 241 240 239 235 232 231 229 226 223 222 223 221 218 219 221 222 224 226 226 226 227 229 226 221 220 220 219 216 212 207 204 203 203 203 204 206 209 209
266 263 257 250 245 244 242 238 235 231 228 225 223 223 224 223 220 219 221 222 222 224 225 224 224 226 224 221 221 220 218 214 210 206 204 202 201 202 202 204 206 206
Height
757 758 760 761 761 762 762 762 763 764 766 767 768 769 770 771 773 775 778 779 780 782 783 784 786 787 788 789 790 791 792 793 793 794 796 796 796 798 799 799 801 801
753 754 756 757 758 758 758 759 760 761 762 763 764 765 767 768 769 771 773 774 776 778 778 780 782 782 783 784 785 786 787 788 789 790 791 791 792 793 793 795 796 797
750 751 752 753 754 754 755 757 758 759 759 760 761 762 763 764 765 767 769 770 772 773 774 776 777 778 779 780 781 782 782 783 784 785 786 787 787 788 789 790 791 792
746 747 748 749 750 751 753 754 754 755 756 757 757 758 759 760 762 763 765 766 768 769 770 771 772 773 774 775 777 777 777 778 779 781 782 782 783 783 784 786 786 787
741 742 743 744 745 747 749 749 749 750 751 752 753 754 755 756 758 760 761 763 764 765 766 767 768 769 770 771 772 773 773 774 775 776 777 777 778 779 780 781 782 782
737 738 738 740 741 743 744 744 745 746 746 748 749 750 752 753 754 756 757 758 759 760 761 762 763 764 765 766 767 768 769 769 770 772 772 772 774 775 776 777 777 778
732 733 734 736 737 739 740 740 741 741 742 744 745 746 748 749 749 751 753 754 755 755 756 757 758 759 760 761 762 763 764 765 766 767 768 768 770 770 771 772 773 774
728 729 730 731 733 735 736 736 737 737 739 741 741 742 744 745 746 747 748 749 750 751 751 753 753 754 755 756 758 758 759 761 762 763 764 764 765 766 767 768 769 769
725 725 726 728 729 731 731 731 733 733 735 737 737 738 740 741 742 743 744 745 746 746 747 748 748 749 751 752 753 754 755 756 757 758 759 760 761 761 762 764 764 765
721 721 723 724 725 726 726 727 728 730 732 732 734 735 735 737 738 739 740 741 741 742 742 743 744 745 746 747 748 750 751 752 753 754 755 755 756 757 758 759 760 760
717 717 718 719 720 721 722 723 724 726 727 727 729 730 731 732 734 734 736 736 736 737 738 738 739 741 742 743 744 745 747 748 749 750 751 751 752 753 754 755 756 757
713 713 714 714 715 717 718 719 720 721 722 722 723 725 726 727 728 729 730 731 731 732 733 734 735 737 738 739 740 741 742 744 745 746 747 747 748 749 750 751 752 753
709 710 710 711 712 713 714 716 716 716 717 717 718 719 721 722 723 724 725 726 727 728 729 730 731 732 734 735 736 737 739 740 741 742 743 743 744 745 746 747 748 749
706 707 708 709 710 710 711 712 712 712 713 714 714 715 716 717 718 719 720 721 723 724 725 726 727 728 729 730 732 733 734 736 737 738 739 739 740 741 742 743 744 745
703 704 704 705 706 707 707 708 708 709 710 711 711 712 712 713 715 716 717 718 719 720 721 722 723 723 725 726 728 729 731 732 733 734 735 735 737 737 738 739 740 741
701 701 700 701 702 702 703 704 705 706 707 708 708 709 709 711 712 713 714 715 715 716 717 718 718 719 721 722 724 726 727 728 729 730 731 732 733 733 734 735 736 737
698 698 697 697 697 698 699 700 701 702 703 704 705 705 706 708 709 710 710 711 712 713 714 714 715 716 717 719 721 723 724 725 725 726 727 728 729 729 730 731 732 734
695 695 694 694 694 694 695 696 698 699 699 699 700 701 703 705 706 706 707 708 709 710 710 711 711 713 715 716 718 719 720 721 722 723 723 724 725 726 727 728 729 730
692 693 692 691 690 691 692 693 695 695 694 695 696 698 700 701 702 703 704 705 706 706 707 707 708 710 712 713 715 716 717 718 718 719 720 721 722 723 724 725 726 727
689 689 689 689 688 688 689 689 690 690 691 691 692 694 696 697 698 699 700 701 702 702 703 704 705 706 708 710 711 712 713 714 715 715 717 718 719 720 721 722 722 723
685 684 685 685 685 686 685 685 685 686 687 688 689 690 691 692 693 695 696 697 697 698 699 699 700 702 704 705 706 707 709 710 710 711 713 714 715 717 718 719 720 720
684 682 681 681 682 682 682 681 680 681 682 683 685 685 686 687 689 689 691 692 693 694 694 694 695 697 699 700 702 703 705 705 706 707 708 710 711 713 714 716 717 718
681 680 679 678 679 679 678 677 676 677 679 680 681 681 681 682 683 684 686 688 689 690 690 690 692 694 695 697 698 699 700 701 702 703 705 706 707 709 711 712 713 715
678 678 677 677 677 675 673 673 673 674 675 676 677 677 676 676 678 680 682 683 685 686 686 687 689 690 692 693 695 696 697 698 699 700 701 702 704 705 707 708 710 711
675 674 673 673 673 671 670 670 670 671 673 674 675 674 674 675 676 677 679 680 681 683 684 685 686 688 689 690 691 693 694 695 696 697 698 699 700 702 703 705 706 708
672 671 670 669 668 668 669 669 669 670 671 672 673 674 675 676 676 677 677 678 680 681 682 683 684 685 687 688 689 691 692 693 694 694 695 696 697 699 700 702 703 704